Location: Unspecified
(0.0000°N, 0.0000°E)
Time: 16:43:06
(UTC+00:00)

Vanguard 1 Rocket - Pass Details

Date: 25 November 2019
Orbit: 650 x 4226 km, 34.3° (Epoch: 12 December)

Event Time Altitude Azimuth Distance (km) Brightness Sun altitude
Rises 21:56:53 0° 240° (WSW) 7,653 12.6 -56.0°
Reaches altitude 10° 22:02:56 10° 243° (WSW) 6,131 11.9 -57.1°
Enters shadow 22:13:25 37° 260° (W) 3,324 10.2 -59.1°
Maximum altitude 22:19:19 58° 318° (NW) 2,173 - -60.1°
Drops below altitude 10° 22:27:34 10° 36° (NE) 3,245 - -61.5°
Sets 22:29:48 0° 41° (NE) 3,930 - -61.9°
